Weather History for Lac Benoit, QC

Change the Weather History Date:

Thursday, December 12, 2013

  Actual Average Record
Temperature  
Mean Temperature -32 °F -  
Max Temperature -19 °F - - ()
Min Temperature -44 °F - - ()
Degree Days  
Heating Degree Days 96    
Moisture  
Dew Point -36 °F    
Average Humidity 70    
Maximum Humidity 80    
Minimum Humidity 44    
Precipitation  
Precipitation 0.00 in - - ()
Sea Level Pressure  
Sea Level Pressure 29.96 in    
Wind  
Wind Speed 3 mph ()    
Max Wind Speed 9 mph    
Max Gust Speed -    
T = Trace of Precipitation, MM = Missing Value Source: Averaged Metar Reports

Daily Weather History Graph

Daily Weather History Graph

Search for Another Location

Airport:

Trip Planner

Search our weather history database for the weather conditions in past years. The results will help you decide how hot, cold, wet, or windy it might be!

Date:

Astronomy

Dec. 12, 2013 Rise Set
Actual Time 7:41 AM EST 3:35 PM EST
Civil Twilight 7:01 AM EST 4:15 PM EST
Nautical Twilight 6:18 AM EST 4:58 PM EST
Astronomical Twilight 5:37 AM EST 5:39 PM EST
Moon 1:04 PM EST (12/12) 2:34 AM EST (12/12)
Length of Visible Light 9h 14m
Length of Day
7h 53m
Waxing Gibbous, 80% of the Moon is Illuminated
Dec 12
Waxing Gibbous
Dec 17
Full
Dec 25
Last Quarter
Jan 1
New
Jan 7
First Quarter

Hourly Weather History & Observations

Time (EST) Temp. Windchill Dew Point Humidity Pressure Visibility Wind Dir Wind Speed Gust Speed Precip Events Conditions
12:00 AM -27.6 °F - -33.2 °F 75% 29.95 in - West 1.2 mph - N/A   Unknown
1:00 AM -32 °F - -38 °F 59% 29.96 in - SE 2.3 mph - -  
1:00 AM -31.5 °F - -37.7 °F 72% 29.96 in - SE 2.3 mph - N/A   Unknown
2:00 AM -33.9 °F - -40.0 °F 72% 29.99 in - SE 2.3 mph - N/A   Unknown
3:00 AM -35.9 °F - -42.2 °F 71% 30.00 in - SE 2.3 mph - N/A   Unknown
4:00 AM -37.8 °F -51.1 °F -44.5 °F 69% 30.02 in - SE 3.5 mph - N/A   Unknown
5:00 AM -39.5 °F - -46.3 °F 68% 30.04 in - SE 2.3 mph - N/A   Unknown
6:00 AM -42.9 °F - -50.1 °F 67% 30.04 in - SSE 2.3 mph - N/A   Unknown
7:00 AM -44 °F - -52 °F 44% 30.05 in - SSE 3.5 mph - -  
7:00 AM -44.5 °F -58.7 °F -51.9 °F 66% 30.05 in - SSE 3.5 mph - N/A   Unknown
8:00 AM -43.6 °F -60.8 °F -50.8 °F 67% 30.06 in - SE 4.6 mph - N/A   Unknown
9:00 AM -39.1 °F -55.5 °F -45.8 °F 69% 30.04 in - SE 4.6 mph - N/A   Unknown
10:00 AM -30.1 °F -47.3 °F -35.9 °F 74% 30.03 in - SSE 5.8 mph - N/A   Unknown
11:00 AM -22.9 °F -40.5 °F -29.0 °F 73% 29.99 in - SSE 6.9 mph - N/A   Unknown
12:00 PM -20.4 °F -35.7 °F -26.7 °F 73% 29.96 in - SSE 5.8 mph - N/A   Unknown
1:00 PM -20 °F - -26 °F 57% 29.95 in - SSE 8.1 mph - -  
1:00 PM -20.0 °F -38.6 °F -26.5 °F 72% 29.95 in - SSE 8.1 mph - N/A   Unknown
2:00 PM -19.1 °F -38.8 °F -25.4 °F 73% 29.93 in - South 9.2 mph - N/A   Unknown
3:00 PM -19.1 °F -34.2 °F -24.9 °F 75% 29.93 in - SSE 5.8 mph - N/A   Unknown
4:00 PM -23.6 °F -34.8 °F -29.6 °F 74% 29.91 in - SSE 3.5 mph - N/A   Unknown
6:00 PM -22.4 °F -39.9 °F -26.9 °F 80% 29.90 in - SSE 6.9 mph - N/A   Unknown
7:00 PM -21 °F - -26 °F 66% 29.89 in - SSE 5.8 mph - -  
7:00 PM -21.3 °F -36.8 °F -25.8 °F 80% 29.89 in - SSE 5.8 mph - N/A   Unknown
8:00 PM -26.1 °F -42.6 °F -31.2 °F 77% 29.90 in - SSE 5.8 mph - N/A   Unknown
9:00 PM -28.8 °F -45.8 °F -34.6 °F 74% 29.89 in - SSE 5.8 mph - N/A   Unknown
10:00 PM -28.7 °F -43.3 °F -34.1 °F 75% 29.86 in - SSE 4.6 mph - N/A   Unknown
11:00 PM -29.4 °F -41.4 °F -35.1 °F 74% 29.83 in - SSE 3.5 mph - N/A   Unknown